Location: El Bakhil
(32.7726°N, 5.5387°W)
Time: 18:53:16
(UTC+00:00)

Envisat - Pass Details

Date: 02 December 2021
Orbit: 764 x 766 km, 98.2° (Epoch: 17 January)

Event Time Altitude Azimuth Distance (km) Brightness Sun altitude
Rises 18:00:17 0° 216° (SW) 3,218 7.3 -9.5°
Reaches altitude 10° 18:04:16 10° 247° (WSW) 2,298 7.1 -10.2°
Maximum altitude 18:06:02 12° 268° (W) 2,182 6.6 -10.6°
Drops below altitude 10° 18:07:48 10° 289° (WNW) 2,303 6.3 -10.9°
Sets 18:11:50 0° 321° (NW) 3,235 6.5 -11.7°
